Zurück zum Katalog

SL-8 R/B

AktivPO
NORAD 22591·ROCKET BODY·🇷🇺 Russia

Gestartet Apr 1, 1993 von Plesetsk Cosmodrome

Loading…

Nächste Überflüge (nächste 24 Stunden)

TLE

AktuellSource: Space-Track

Epoche: Sep 14, 2026, 08:00 UTC

1 22591U 93020B   26257.33354833 -.00000011  00000-0 -25985-4 0  9994
2 22591  82.9281  43.5286 0023958 279.3515  99.6792 13.77764859681293

Verfolge SL-8 R/B in Echtzeit mit AllMySat

Download on the App Store